User: anonymous   Login
Location: Unspecified
(0.0000°N, 0.0000°E)
Time: 11:55:36
(UTC+01:00)
Language:

Cosmos 2279 Rocket - Orbit

View from above orbital plane
View from above orbital plane
View from above satellite
View from above satellite

Ground track
Ground track

The orbit data is extracted from the following two-line orbital elements,

1 23093U 94024B   15058.43044480  .00000032  00000-0  17065-4 0  9990
2 23093 082.9487 019.7468 0009558 193.1218 166.9692 13.77646522515669
Epoch (UTC): 27 February 2015 10:19:50
Eccentricity: 0.0009558
inclination: 82.9487°
perigee height: 965 km
apogee height: 979 km
right ascension of ascending node: 19.7468°
argument of perigee: 193.1218°
revolutions per day: 13.77646522
mean anomaly at epoch: 166.9692°
orbit number at epoch: 51566

The dashed part of the orbit path shows where the satellite is in the earth's shadow,  

DLR